[[{"header":{"parameterUnit":"m.s-1","parameterCategory":1,"la1":30.2991,"la2":30.254,"lo1":-89.0895,"lo2":-89.0444,"dy":0.0017,"dx":0.0017,"nx":28,"ny":28,"refTime":"2025-04-14T09:00:00:Z","depth":0,"parameterNumber":2,"parameterNumberName":"U-component_of_WINDS"},"data":[0,0,0,0,0,0,0,0,0,0,0,0,0,0,0,0,0,0,0,0,0,0,0,0,0,0,0,0,0,0,0,0,0,0,0,0,0,0,0,0,0,0,0,0,0,0,0,0,0,0,0,0,0,0,0,0,0,0,0.6157,0.6157,0,0.6174,0.6174,0.6174,0.6184,0.6184,0.6184,0.6184,0.6201,0.6201,0.6202,0,0,0,0,0,0,0,0,0,0,0,0,0,0.6134,0.6134,0.6157,0.6157,0.6157,0.6174,0.6174,0.6174,0.6184,0.6184,0.6184,0.6184,0.6201,0.6201,0.6202,0,0,0,0,0,0,0,0,0,0,0,0,0,0.6146,0.6134,0.6157,0.6164,0.6165,0.6174,0.6174,0.6174,0.6184,0.6184,0.6184,0.6184,0.6201,0.6201,0.6202,0.6205,0,0,0.6204,0.6204,0,0,0,0,0,0,0,0,0.6146,0.6147,0.6163,0.6164,0.6164,0.6177,0.6172,0.6185,0.6184,0.6177,0.6184,0.6184,0.6193,0.6194,0.6197,0.6206,0.6207,0.6204,0.6204,0.6205,0.6205,0,0,0,0,0,0,0,0.6145,0.6147,0.6164,0.6163,0.6164,0.6167,0.6169,0.6175,0.6184,0.6177,0.6178,0.618,0.6193,0.6197,0.6198,0.6207,0.6204,0.6205,0.6205,0.6205,0.6221,0.6221,0,0,0,0,0,0,0.6143,0.6146,0.6163,0.6164,0.6155,0.6167,0.6169,0.6173,0.6184,0.6186,0.618,0.618,0.6196,0.6197,0.6198,0.6204,0.6205,0.6205,0.6206,0.6221,0.6221,0.6221,0,0,0,0,0,0,0.6142,0.6144,0.6162,0.6155,0.6158,0.6167,0.6171,0.6173,0.6176,0.6186,0.6188,0.6181,0.6196,0.6198,0.6204,0.6205,0.6206,0.6206,0.6221,0.6221,0.6221,0.6214,0,0,0,0,0,0,0.6141,0.6144,0.6145,0.6155,0.6158,0.6167,0.6171,0.6173,0.6177,0.6178,0.6188,0.619,0.6196,0.6203,0.6205,0.6205,0.6207,0.6221,0.6221,0.6221,0.6214,0.6214,0.6213,0,0,0,0,0,0.6141,0.6142,0.6145,0.6147,0.6159,0.6167,0.6169,0.6176,0.6177,0.6179,0.6185,0.6189,0.6204,0.6203,0.6205,0.6206,0.6221,0.6221,0.6221,0.6214,0.6214,0.6213,0,0,0,0,0,0,0.6131,0.6143,0.6147,0.6151,0.6158,0.6169,0.617,0.6175,0.6181,0.6182,0.619,0.6192,0.6198,0.6203,0.6202,0.6211,0.6213,0.6214,0.6207,0.6207,0.6207,0.6205,0.6207,0,0,0,0,0,0.6129,0.6134,0.6145,0.6148,0.6151,0.616,0.6164,0.6169,0.6176,0.6179,0.6186,0.6193,0.62,0.6204,0.621,0.6215,0.6218,0.6217,0.6217,0.6217,0.6217,0.6221,0.6221,0.6221,0.6221,0.6221,0,0,0.6125,0.6133,0.6135,0.6146,0.6152,0.6157,0.6162,0.6168,0.6172,0.618,0.6186,0.6192,0.6201,0.6207,0.621,0.6211,0.6218,0.6217,0.6216,0.6217,0.6221,0.6221,0.6221,0.6221,0.6221,0.6221,0,0,0.6122,0.6128,0.6131,0.6138,0.6147,0.6153,0.6154,0.6165,0.6169,0.6176,0.6182,0.6188,0.6199,0.6205,0.621,0.6211,0.6215,0.6213,0.621,0.6215,0.6215,0.6215,0.6216,0.6216,0.6213,0.6213,0.6213,0,0.6116,0.6124,0.6133,0.6138,0.6143,0.6151,0.6155,0.6161,0.6172,0.6175,0.6177,0.6191,0.6198,0.6206,0.6207,0.621,0.6212,0.6211,0.6214,0.6214,0.6214,0.6215,0.6215,0.6213,0.6213,0.6213,0.6213,0,0.6117,0.6123,0.6125,0.6136,0.6141,0.6146,0.6155,0.616,0.6165,0.6171,0.6179,0.6188,0.6196,0.6199,0.6204,0.6209,0.6209,0.6212,0.6214,0.6214,0.6215,0.6215,0.6212,0.6212,0.6212,0.6212,0,0,0.6106,0.6123,0.6123,0.6129,0.6141,0.6146,0.6152,0.6161,0.6165,0.6172,0.6178,0.6188,0.6191,0.6197,0.6202,0.6206,0.6208,0.6209,0.6209,0.6209,0.6214,0.6212,0.6212,0.6211,0.6211,0.6211,0.6214,0,0.6104,0.6114,0.6123,0.613,0.6136,0.6145,0.6151,0.6159,0.6166,0.6172,0.618,0.6187,0.6191,0.6194,0.6198,0.6206,0.6209,0.6207,0.6216,0.6217,0.6213,0.6213,0.6209,0.6211,0.6214,0.6214,0.6214,0,0.6102,0.6111,0.6119,0.6131,0.6134,0.6139,0.6149,0.6155,0.6165,0.617,0.6177,0.6183,0.6191,0.6193,0.6204,0.6202,0.6207,0.6212,0.6212,0.6213,0.6215,0.6213,0.6212,0.6212,0.6215,0.6215,0.6215,0,0.6094,0.6107,0.6114,0.6118,0.6133,0.6136,0.6143,0.6153,0.6158,0.6167,0.6171,0.6181,0.6186,0.6194,0.6203,0.6204,0.6214,0.6216,0.6218,0.6218,0.6219,0.6219,0.6218,0.6223,0.6223,0.6223,0.6222,0,0.609,0.6095,0.611,0.6114,0.612,0.6131,0.6137,0.6144,0.6153,0.616,0.6169,0.6174,0.6187,0.6194,0.6202,0.621,0.6212,0.6217,0.6219,0.6216,0.6215,0.6219,0.6219,0.6223,0.6223,0.6223,0.6223,0,0.6081,0.6091,0.61,0.6114,0.6117,0.6121,0.6134,0.6138,0.6147,0.6155,0.6157,0.617,0.6179,0.619,0.6203,0.6208,0.6216,0.6219,0.6213,0.6214,0.6215,0.6215,0.6216,0.6217,0.6221,0.6221,0.6221,0,0.6078,0.6082,0.6097,0.6102,0.6108,0.6116,0.6122,0.6133,0.6139,0.6152,0.6156,0.6166,0.6175,0.619,0.6201,0.6211,0.6214,0.6215,0.6216,0.6213,0.6215,0.6214,0.6215,0.6214,0.6214,0.6213,0.6213,0,0.6071,0.6077,0.6085,0.6096,0.6103,0.6111,0.612,0.6124,0.6138,0.6144,0.6154,0.6161,0.6175,0.6186,0.6198,0.6205,0.6212,0.6213,0.6214,0.6211,0.6207,0.621,0.6211,0.6213,0.6213,0.6213,0.6213,0.6213,0.6065,0.607,0.6081,0.609,0.6099,0.6108,0.6113,0.6123,0.6131,0.6144,0.615,0.6161,0.6173,0.619,0.6197,0.6206,0.6208,0.6209,0.6209,0.6209,0.6209,0.6206,0.6208,0.6208,0.6208,0.6208,0.6208,0,0.6059,0.6068,0.6076,0.6089,0.6097,0.6103,0.6114,0.612,0.6129,0.614,0.6149,0.6161,0.6172,0.6185,0.6196,0.6201,0.6205,0.6204,0.6203,0.6205,0.6206,0.6204,0.6201,0.6201,0.6201,0.6201,0.6201,0.6201,0.6057,0.6065,0.6072,0.6085,0.6094,0.6104,0.611,0.6118,0.6127,0.6141,0.615,0.6158,0.617,0.6183,0.6194,0.6197,0.6201,0.62,0.6204,0.6204,0.6205,0.6205,0.6204,0.62,0.62,0.6202,0.6202,0.6202]},{"header":{"parameterUnit":"m.s-1","parameterCategory":1,"la1":30.2991,"la2":30.254,"lo1":-89.0895,"lo2":-89.0444,"dy":0.0017,"dx":0.0017,"nx":28,"ny":28,"refTime":"2025-04-14T09:00:00:Z","depth":0,"parameterNumber":3,"parameterNumberName":"V-component_of_WINDS"},"data":[0,0,0,0,0,0,0,0,0,0,0,0,0,0,0,0,0,0,0,0,0,0,0,0,0,0,0,0,0,0,0,0,0,0,0,0,0,0,0,0,0,0,0,0,0,0,0,0,0,0,0,0,0,0,0,0,0,0,-5.3388,-5.3389,0,-5.3479,-5.348,-5.3481,-5.3439,-5.3437,-5.3435,-5.3432,-5.3518,-5.3523,-5.3527,0,0,0,0,0,0,0,0,0,0,0,0,0,-5.3173,-5.3177,-5.3388,-5.3389,-5.339,-5.3479,-5.348,-5.3481,-5.344,-5.3437,-5.3434,-5.3431,-5.3517,-5.3522,-5.3527,0,0,0,0,0,0,0,0,0,0,0,0,0,-5.3265,-5.3178,-5.3387,-5.338,-5.338,-5.3478,-5.348,-5.3481,-5.344,-5.3437,-5.3433,-5.343,-5.3515,-5.3522,-5.3528,-5.3636,0,0,-5.3548,-5.3551,0,0,0,0,0,0,0,0,-5.326,-5.3273,-5.338,-5.3381,-5.3381,-5.3444,-5.3435,-5.3533,-5.3441,-5.3417,-5.3432,-5.3429,-5.3496,-5.3504,-5.3528,-5.364,-5.3644,-5.3549,-5.3553,-5.3556,-5.3557,0,0,0,0,0,0,0,-5.3253,-5.3269,-5.3423,-5.3382,-5.3382,-5.3371,-5.338,-5.3454,-5.3474,-5.3419,-5.3416,-5.3428,-5.3496,-5.3522,-5.353,-5.3645,-5.3549,-5.3554,-5.3558,-5.3561,-5.3851,-5.3855,0,0,0,0,0,0,-5.3248,-5.3264,-5.342,-5.3426,-5.3311,-5.3377,-5.3388,-5.3427,-5.3473,-5.3477,-5.3431,-5.3426,-5.3512,-5.3522,-5.3533,-5.3662,-5.3555,-5.3562,-5.3565,-5.3848,-5.3852,-5.3856,0,0,0,0,0,0,-5.3244,-5.3262,-5.3417,-5.3344,-5.3363,-5.3385,-5.3429,-5.3431,-5.3457,-5.3482,-5.3485,-5.3454,-5.351,-5.3523,-5.3612,-5.3665,-5.3565,-5.3571,-5.3843,-5.3849,-5.3854,-5.3923,0,0,0,0,0,0,-5.3238,-5.3261,-5.3303,-5.3346,-5.3367,-5.3496,-5.3433,-5.3435,-5.347,-5.3464,-5.3505,-5.3509,-5.3508,-5.3602,-5.3618,-5.3672,-5.3576,-5.3838,-5.3846,-5.3853,-5.3916,-5.393,-5.3942,0,0,0,0,0,-5.323,-5.3317,-5.3306,-5.3325,-5.3421,-5.3499,-5.3511,-5.3511,-5.3474,-5.3516,-5.3533,-5.3507,-5.3657,-5.3611,-5.3629,-5.3686,-5.3835,-5.3844,-5.3852,-5.391,-5.3927,-5.3942,0,0,0,0,0,0,-5.3277,-5.3322,-5.331,-5.3414,-5.3454,-5.3492,-5.3544,-5.353,-5.3578,-5.357,-5.3567,-5.3576,-5.3668,-5.3686,-5.3634,-5.3793,-5.374,-5.3753,-5.3778,-5.3795,-5.3808,-5.38,-5.3581,0,0,0,0,0,-5.33,-5.3362,-5.3397,-5.3485,-5.3506,-5.3523,-5.3556,-5.3554,-5.3593,-5.3609,-5.3631,-5.3669,-5.3725,-5.3761,-5.3813,-5.3919,-5.3927,-5.3967,-5.398,-5.3991,-5.4001,-5.4058,-5.4076,-5.3884,-5.3884,-5.3884,0,0,-5.3347,-5.3379,-5.3418,-5.3496,-5.3526,-5.3588,-5.3536,-5.3604,-5.365,-5.3618,-5.3703,-5.3722,-5.3763,-5.3861,-5.3905,-5.3879,-5.4056,-5.4002,-5.401,-5.4014,-5.4069,-5.4087,-5.4103,-5.389,-5.3889,-5.3888,0,0,-5.3464,-5.3496,-5.3573,-5.3605,-5.3653,-5.3664,-5.3683,-5.3725,-5.3736,-5.3823,-5.3801,-5.3854,-5.395,-5.3981,-5.4009,-5.4142,-5.412,-5.416,-5.4227,-5.4283,-5.4298,-5.4312,-5.4358,-5.4375,-5.417,-5.417,-5.417,0,-5.3515,-5.361,-5.3613,-5.3684,-5.3719,-5.3697,-5.3775,-5.3805,-5.3866,-5.389,-5.3861,-5.3982,-5.4009,-5.4113,-5.4146,-5.417,-5.419,-5.4153,-5.4297,-5.431,-5.4322,-5.4366,-5.4384,-5.4174,-5.4174,-5.4173,-5.4173,0,-5.367,-5.3737,-5.3794,-5.3857,-5.3898,-5.3972,-5.3985,-5.4026,-5.4021,-5.4035,-5.4123,-5.4155,-5.4213,-5.4239,-5.4233,-5.4343,-5.4325,-5.4297,-5.4243,-5.4345,-5.4386,-5.4403,-5.4181,-5.4179,-5.4178,-5.4177,0,0,-5.3815,-5.3883,-5.3903,-5.3933,-5.3986,-5.4036,-5.4109,-5.417,-5.4205,-5.4249,-5.4309,-5.4392,-5.4367,-5.4399,-5.4397,-5.4447,-5.455,-5.4412,-5.4413,-5.4435,-5.4672,-5.4692,-5.4711,-5.4537,-5.454,-5.4543,-5.4668,0,-5.3935,-5.4065,-5.4072,-5.4189,-5.425,-5.4233,-5.4296,-5.4335,-5.435,-5.4403,-5.4419,-5.4478,-5.4441,-5.4461,-5.4509,-5.4527,-5.4597,-5.4518,-5.459,-5.4593,-5.4578,-5.4733,-5.4753,-5.487,-5.4684,-5.4687,-5.4689,0,-5.4091,-5.4144,-5.4268,-5.4315,-5.434,-5.4398,-5.4455,-5.4506,-5.455,-5.4558,-5.4596,-5.4588,-5.4661,-5.4607,-5.4707,-5.4654,-5.4684,-5.4698,-5.4702,-5.4706,-5.4645,-5.4739,-5.4907,-5.4924,-5.4715,-5.4713,-5.4711,0,-5.4182,-5.4284,-5.4372,-5.4398,-5.4455,-5.4495,-5.452,-5.4561,-5.4598,-5.4647,-5.4671,-5.4728,-5.4758,-5.4801,-5.4808,-5.4769,-5.4908,-5.4855,-5.4915,-5.4915,-5.4942,-5.494,-5.5115,-5.4966,-5.4966,-5.4966,-5.4965,0,-5.4314,-5.439,-5.4415,-5.4468,-5.4553,-5.4561,-5.4644,-5.4666,-5.4703,-5.476,-5.4748,-5.48,-5.4808,-5.4862,-5.4868,-5.4949,-5.4963,-5.497,-5.497,-5.497,-5.4969,-5.4987,-5.4979,-5.497,-5.4969,-5.4968,-5.4968,0,-5.4428,-5.4448,-5.4543,-5.4591,-5.4605,-5.4665,-5.4705,-5.4756,-5.4772,-5.4844,-5.4861,-5.4885,-5.4949,-5.4961,-5.5035,-5.5039,-5.5136,-5.5129,-5.5122,-5.512,-5.5179,-5.5172,-5.5369,-5.5395,-5.5232,-5.5234,-5.5235,0,-5.4509,-5.4568,-5.4624,-5.4663,-5.4691,-5.4753,-5.4791,-5.4802,-5.4842,-5.4898,-5.4942,-5.5006,-5.5056,-5.5159,-5.5181,-5.5238,-5.5231,-5.5297,-5.5239,-5.5237,-5.523,-5.5225,-5.5231,-5.5306,-5.5308,-5.531,-5.5311,0,-5.4651,-5.4659,-5.4716,-5.4779,-5.4826,-5.4875,-5.4921,-5.4953,-5.4969,-5.5015,-5.5082,-5.5122,-5.52,-5.5262,-5.532,-5.5343,-5.5329,-5.533,-5.5346,-5.5345,-5.5337,-5.5341,-5.5149,-5.5324,-5.5322,-5.5322,-5.5321,-5.532,-5.4749,-5.4801,-5.485,-5.4915,-5.4952,-5.4996,-5.5047,-5.5071,-5.5128,-5.5194,-5.5197,-5.527,-5.5313,-5.539,-5.5418,-5.5473,-5.5452,-5.5477,-5.5482,-5.5487,-5.5492,-5.5332,-5.5484,-5.5484,-5.5483,-5.5483,-5.5483,0,-5.4888,-5.492,-5.498,-5.5047,-5.5099,-5.5086,-5.5137,-5.518,-5.5245,-5.5289,-5.5341,-5.5418,-5.5479,-5.5509,-5.5569,-5.5608,-5.5603,-5.5623,-5.5618,-5.5624,-5.5508,-5.5487,-5.5626,-5.5626,-5.5626,-5.5626,-5.5626,-5.5626,-5.4966,-5.5054,-5.5069,-5.5174,-5.5205,-5.5278,-5.5309,-5.5349,-5.5384,-5.5472,-5.5524,-5.5545,-5.5582,-5.5646,-5.5701,-5.5708,-5.573,-5.5753,-5.5756,-5.5647,-5.5632,-5.5618,-5.5598,-5.5758,-5.5758,-5.5867,-5.5868,-5.5869]}]]